星链-36687(STARLINK-36687)

导读

STARLINK-36687是美国星链计划的低轨互联网通信卫星,于2026年2月7日发射升空,隶属于太空探索技术公司SpaceX打造的星链星座组网项目。星链系统旨在为全球用户提供高速、低延迟的宽带互联网接入服务,该卫星入轨后将进一步扩充星链星座规模,提升全球覆盖性能与服务稳定性。

基本信息
目录编号:
67711
目录名称:
STARLINK-36687
国际标识:
2026-025U
轨道中心:
EARTH
卫星名称:
星链-36687
卫星全名:
星链-36687(STARLINK-36687)
卫星状态:
在轨 (已飞行126 天)
发射日期:
2026-02-07 UTC
国别 :
美国 (US)
星等 :
--
轨道信息
数据来源 国际轨道数据
星历时间: 2026-06-13T03:23:46+0800
9小时前
查看轨道信息
半长轴: 6843.648km
偏心率: 0.0000692
轨道倾角: 97.285°
近地点辐角 169.977°
升交点赤经 275.218°
平近点角 190.149°
近地点: 465.037km
远地点: 465.985km
周期: 93.906分钟
每日圈数: 15.33456
详细信息
固有亮度:
5
最大亮度:
2.5
卫星平台:
Starlink V1.0
覆盖范围:
全球
运营商:
太空探索技术公司
运营商所在国:
美国
制造商(研发单位):
太空探索技术公司
制造商所在国:
美国
使用方式:
暂无
卫星简介
Starlink 计划是 SpaceX 推出的全球卫星互联网项目,通过发射低轨道卫星,为全球尤其是偏远地区提供高速、低延迟的互联网服务。自 2019 年起,Starlink 已部署数千颗卫星,旨在缩小全球数字鸿沟,推动互联网普及。该项目还为军事、航空等行业提供通信支持,带来广泛经济效益。
2D轨道图
3D轨道图
轨道高度分析图
轨道倾角分析图
轨道综合分析图
查看轨道综合分析图